Weather History for Monticello, KY

Change the Weather History Date:

Tuesday, February 12, 2013

  Actual Average Record
Temperature  
Mean Temperature 38 °F -  
Max Temperature 50 °F 47 °F 71 °F (1984)
Min Temperature 25 °F 25 °F -5 °F (1981)
Degree Days  
Heating Degree Days 28    
Moisture  
Dew Point 29 °F    
Average Humidity 66    
Maximum Humidity 96    
Minimum Humidity 40    
Precipitation  
Precipitation 0.00 in - - ()
Sea Level Pressure  
Sea Level Pressure 30.10 in    
Wind  
Wind Speed 2 mph (SSW)    
Max Wind Speed 7 mph    
Max Gust Speed -    
Visibility 10 miles    
Events      
Averages and records for this station are not official NWS values.
T = Trace of Precipitation, MM = Missing Value Source: NWS Daily Summary

Daily Weather History Graph

Daily Weather History Graph

Search for Another Location

Airport:

Trip Planner

Search our weather history database for the weather conditions in past years. The results will help you decide how hot, cold, wet, or windy it might be!

Date:

Astronomy

Feb. 12, 2013 Rise Set
Actual Time 6:30 AM CST 5:16 PM CST
Civil Twilight 6:04 AM CST 5:43 PM CST
Nautical Twilight 5:33 AM CST 6:14 PM CST
Astronomical Twilight 5:03 AM CST 6:44 PM CST
Moon 7:33 AM CST (2/12) 8:10 PM CST (2/12)
Length of Visible Light 11h 39m
Length of Day
10h 46m
Waxing Crescent, 7% of the Moon is Illuminated
Feb 12
Waxing Crescent
Feb 17
First Quarter
Feb 25
Full
Mar 4
Last Quarter
Mar 11
New

Hourly Weather History & Observations

Time (CST) Temp. Windchill Dew Point Humidity Pressure Visibility Wind Dir Wind Speed Gust Speed Precip Events Conditions
12:56 AM 32.0 °F - 27.1 °F 82% 30.19 in 10.0 mi Calm Calm - N/A   Clear
1:56 AM 28.0 °F 24.2 °F 26.1 °F 92% 30.21 in 10.0 mi ESE 3.5 mph - N/A   Clear
2:56 AM 28.0 °F - 26.1 °F 92% 30.20 in 10.0 mi Calm Calm - N/A   Clear
3:56 AM 29.1 °F - 28.0 °F 96% 30.21 in 10.0 mi Calm Calm - N/A   Clear
4:56 AM 28.0 °F - 27.1 °F 96% 30.22 in 10.0 mi Calm Calm - N/A   Clear
6:56 AM 25.2 °F - 24.1 °F 96% 30.24 in 10.0 mi Calm Calm - N/A   Clear
7:56 AM 34.9 °F - 31.1 °F 86% 30.23 in 10.0 mi Calm Calm - N/A   Clear
8:56 AM 43.0 °F - 31.1 °F 63% 30.21 in 10.0 mi Calm Calm - N/A   Clear
9:56 AM 46.9 °F - 26.1 °F 44% 30.17 in 10.0 mi SW 6.9 mph - N/A   Clear
10:56 AM 48.9 °F - 26.1 °F 41% 30.15 in 10.0 mi SW 5.8 mph - N/A   Clear
11:56 AM 50.9 °F - 27.1 °F 40% 30.17 in 10.0 mi Variable 4.6 mph - N/A   Clear
12:56 PM 50.9 °F - 27.1 °F 40% 30.11 in 10.0 mi West 4.6 mph - N/A   Clear
1:56 PM 50.0 °F - 27.1 °F 41% 30.12 in 10.0 mi South 4.6 mph - N/A   Clear
2:56 PM 50.0 °F - 27.1 °F 41% 30.08 in 10.0 mi SSW 5.8 mph - N/A   Clear
3:56 PM 48.9 °F - 27.1 °F 43% 30.04 in 10.0 mi SW 3.5 mph - N/A   Clear
4:56 PM 46.9 °F - 30.0 °F 52% 30.02 in 10.0 mi SSW 4.6 mph - N/A   Clear
5:56 PM 43.0 °F 41.3 °F 32.0 °F 65% 30.01 in 10.0 mi SSW 3.5 mph - N/A   Clear
6:56 PM 39.9 °F - 32.9 °F 76% 30.01 in 10.0 mi Calm Calm - N/A   Clear
7:56 PM 41.0 °F - 32.9 °F 73% 29.99 in 10.0 mi Calm Calm - N/A   Clear
8:56 PM 41.9 °F 39.0 °F 30.0 °F 63% 29.98 in 10.0 mi SW 4.6 mph - N/A   Partly Cloudy
9:56 PM 41.9 °F - 32.0 °F 68% 29.94 in 10.0 mi Calm Calm - N/A   Scattered Clouds
10:56 PM 43.0 °F 39.5 °F 31.1 °F 63% 29.90 in 10.0 mi SSW 5.8 mph - N/A   Mostly Cloudy
11:56 PM 43.0 °F 40.3 °F 31.1 °F 63% 29.89 in 10.0 mi WSW 4.6 mph - N/A   Mostly Cloudy